DAL1421 KLAX-KSFO

Flight info

Callsign DAL1421
Flight time 0h 48m
Altitude 32000
Route SUMMR2 STOKD SERFR SERFR4
Aircraft B738/M-SDE2E3FGHIRWXY/LB1

Departure

Time 2026-04-21 05:26
Airport Los Angeles International Airport (KLAX)

Arrival

Time 2026-04-21 06:14
Airport San Francisco International Airport (KSFO)
Time Latitude Longitude Altitude Speed Heading
2026-04-21 05:12 33.94740 -118.40404 83 ft 0 kts 184°
2026-04-21 05:15 33.94750 -118.40403 93 ft 4 kts 184°
2026-04-21 05:15 33.94774 -118.40401 91 ft 2 kts 184°
2026-04-21 05:16 33.94792 -118.40407 93 ft 4 kts 114°
2026-04-21 05:16 33.94797 -118.40434 90 ft 4 kts 83°
2026-04-21 05:16 33.94794 -118.40462 91 ft 2 kts 82°
2026-04-21 05:16 33.94793 -118.40463 91 ft 0 kts 82°
2026-04-21 05:22 33.94796 -118.40441 91 ft 6 kts 82°
2026-04-21 05:22 33.94800 -118.40401 92 ft 8 kts 83°
2026-04-21 05:22 33.94828 -118.40308 92 ft 13 kts 38°
2026-04-21 05:23 33.94898 -118.40248 95 ft 13 kts 62°
2026-04-21 05:23 33.94910 -118.40144 93 ft 12 kts 78°
2026-04-21 05:23 33.94919 -118.40043 94 ft 12 kts 83°
2026-04-21 05:23 33.94937 -118.39945 92 ft 12 kts 59°
2026-04-21 05:24 33.94961 -118.39922 94 ft 2 kts 25°
2026-04-21 05:24 33.94994 -118.39915 92 ft 11 kts
2026-04-21 05:24 33.95037 -118.39989 95 ft 13 kts 265°
2026-04-21 05:25 33.94942 -118.40932 96 ft 116 kts 263°
2026-04-21 05:25 33.94820 -118.42124 130 ft 163 kts 263°
2026-04-21 05:26 33.94387 -118.46562 1889 ft 194 kts 264°
2026-04-21 05:26 33.94291 -118.48278 2115 ft 218 kts 267°
2026-04-21 05:26 33.94251 -118.50210 2348 ft 243 kts 270°
2026-04-21 05:26 33.94146 -118.52297 2882 ft 256 kts 262°
2026-04-21 05:27 33.93924 -118.54448 3579 ft 261 kts 265°
2026-04-21 05:27 33.93764 -118.56632 4399 ft 262 kts 263°
2026-04-21 05:27 33.93596 -118.58825 5151 ft 265 kts 263°
2026-04-21 05:27 33.93443 -118.61049 5893 ft 268 kts 263°
2026-04-21 05:28 33.93299 -118.63265 6629 ft 270 kts 262°
2026-04-21 05:28 33.93093 -118.65547 7349 ft 272 kts 261°
2026-04-21 05:28 33.92897 -118.67822 8074 ft 274 kts 261°
2026-04-21 05:28 33.92719 -118.70083 8785 ft 276 kts 261°
2026-04-21 05:29 33.92541 -118.72392 9515 ft 278 kts 260°
2026-04-21 05:29 33.92362 -118.74721 10209 ft 281 kts 260°
2026-04-21 05:29 33.92172 -118.77139 10443 ft 301 kts 260°
2026-04-21 05:29 33.91965 -118.79735 10608 ft 322 kts 261°
2026-04-21 05:30 33.91746 -118.82497 10767 ft 341 kts 261°
2026-04-21 05:30 33.91636 -118.85411 11113 ft 355 kts 267°
2026-04-21 05:30 33.91749 -118.88398 11698 ft 359 kts 269°
2026-04-21 05:30 33.91899 -118.91400 12368 ft 360 kts 269°
2026-04-21 05:31 33.92021 -118.94417 13003 ft 362 kts 268°
2026-04-21 05:31 33.92120 -118.97462 13646 ft 365 kts 267°
2026-04-21 05:31 33.92265 -119.00528 14247 ft 371 kts 274°
2026-04-21 05:31 33.93104 -119.03519 14800 ft 386 kts 294°
2026-04-21 05:32 33.94520 -119.06294 15405 ft 391 kts 297°
2026-04-21 05:32 33.96009 -119.09064 15953 ft 396 kts 298°
2026-04-21 05:32 33.97499 -119.11869 16492 ft 400 kts 297°
2026-04-21 05:32 33.98983 -119.14718 17035 ft 403 kts 297°
2026-04-21 05:33 34.00485 -119.17594 17570 ft 408 kts 300°
2026-04-21 05:33 34.02458 -119.20116 18066 ft 424 kts 319°
2026-04-21 05:33 34.04888 -119.22162 18563 ft 428 kts 321°
2026-04-21 05:33 34.07351 -119.24205 19011 ft 431 kts 321°
2026-04-21 05:34 34.09821 -119.26270 19546 ft 431 kts 321°
2026-04-21 05:34 34.12273 -119.28343 20128 ft 431 kts 320°
2026-04-21 05:34 34.14723 -119.30434 20641 ft 432 kts 320°
2026-04-21 05:34 34.17180 -119.32545 21120 ft 434 kts 320°
2026-04-21 05:35 34.19643 -119.34669 21583 ft 436 kts 320°
2026-04-21 05:35 34.22120 -119.36808 22066 ft 438 kts 320°
2026-04-21 05:35 34.24606 -119.38957 22478 ft 441 kts 320°
2026-04-21 05:35 34.27110 -119.41122 22913 ft 443 kts 320°
2026-04-21 05:36 34.29622 -119.43295 23365 ft 445 kts 320°
2026-04-21 05:36 34.32142 -119.45476 23775 ft 446 kts 320°
2026-04-21 05:36 34.34672 -119.47667 24129 ft 448 kts 320°
2026-04-21 05:36 34.37212 -119.49868 24477 ft 450 kts 320°
2026-04-21 05:37 34.39727 -119.52049 24829 ft 452 kts 320°
2026-04-21 05:37 34.42228 -119.54354 25149 ft 451 kts 314°
2026-04-21 05:37 34.44494 -119.56965 25529 ft 449 kts 310°
2026-04-21 05:37 34.46663 -119.59690 25860 ft 450 kts 308°
2026-04-21 05:38 34.48811 -119.62455 26170 ft 452 kts 308°
2026-04-21 05:38 34.50974 -119.65233 26493 ft 454 kts 308°
2026-04-21 05:38 34.53164 -119.68011 26793 ft 457 kts 309°
2026-04-21 05:38 34.55375 -119.70783 27094 ft 459 kts 309°
2026-04-21 05:39 34.57610 -119.73559 27415 ft 460 kts 309°
2026-04-21 05:39 34.59859 -119.76342 27713 ft 462 kts 309°
2026-04-21 05:39 34.62117 -119.79129 27988 ft 464 kts 309°
2026-04-21 05:39 34.64387 -119.81933 28248 ft 467 kts 309°
2026-04-21 05:40 34.66663 -119.84745 28598 ft 467 kts 309°
2026-04-21 05:40 34.68936 -119.87555 29046 ft 465 kts 309°
2026-04-21 05:40 34.71196 -119.90353 29532 ft 462 kts 309°
2026-04-21 05:40 34.73443 -119.93139 29984 ft 461 kts 309°
2026-04-21 05:41 34.75689 -119.95928 30306 ft 461 kts 308°
2026-04-21 05:41 34.77934 -119.98720 30572 ft 462 kts 308°
2026-04-21 05:41 34.80176 -120.01510 30895 ft 461 kts 308°
2026-04-21 05:41 34.82415 -120.04297 31235 ft 459 kts 308°
2026-04-21 05:42 34.84643 -120.07073 31543 ft 459 kts 308°
2026-04-21 05:42 34.86872 -120.09852 31845 ft 458 kts 308°
2026-04-21 05:42 34.89099 -120.12633 32069 ft 460 kts 308°
2026-04-21 05:42 34.91340 -120.15434 32069 ft 462 kts 308°
2026-04-21 05:43 34.95821 -120.21037 32062 ft 459 kts 308°
2026-04-21 05:43 35.00258 -120.26594 32058 ft 456 kts 308°
2026-04-21 05:44 35.04672 -120.32135 32059 ft 455 kts 308°
2026-04-21 05:44 35.09083 -120.37673 32067 ft 456 kts 308°
2026-04-21 05:45 35.13723 -120.42998 32071 ft 459 kts 311°
2026-04-21 05:45 35.18485 -120.48225 32056 ft 460 kts 311°
2026-04-21 05:46 35.23224 -120.53487 32038 ft 461 kts 311°
2026-04-21 05:46 35.27951 -120.58798 32059 ft 462 kts 310°
2026-04-21 05:47 35.32659 -120.64108 32048 ft 464 kts 310°
2026-04-21 05:47 35.37414 -120.69477 32047 ft 465 kts 310°
2026-04-21 05:48 35.42177 -120.74861 32047 ft 467 kts 310°
2026-04-21 05:48 35.46944 -120.80259 32049 ft 466 kts 310°
2026-04-21 05:49 35.51896 -120.85441 32056 ft 471 kts 316°
2026-04-21 05:49 35.57187 -120.90222 32083 ft 472 kts 317°
2026-04-21 05:50 35.62489 -120.95001 32048 ft 472 kts 316°
2026-04-21 05:50 35.66857 -120.99025 32034 ft 472 kts 315°
2026-04-21 05:51 35.72080 -121.03894 32025 ft 471 kts 315°
2026-04-21 05:51 35.77295 -121.08773 32031 ft 471 kts 315°
2026-04-21 05:52 35.82506 -121.13653 32032 ft 470 kts 315°
2026-04-21 05:52 35.87718 -121.18539 32010 ft 471 kts 315°
2026-04-21 05:53 35.92886 -121.23383 32004 ft 455 kts 314°
2026-04-21 05:53 35.95364 -121.25702 32000 ft 440 kts 314°
2026-04-21 05:53 35.97792 -121.27985 31433 ft 440 kts 314°
2026-04-21 05:54 36.00251 -121.30320 30374 ft 453 kts 314°
2026-04-21 05:54 36.02797 -121.32736 29157 ft 468 kts 314°
2026-04-21 05:54 36.05389 -121.35179 28392 ft 469 kts 315°
2026-04-21 05:54 36.07997 -121.37581 27851 ft 467 kts 317°
2026-04-21 05:55 36.10707 -121.39794 27354 ft 465 kts 320°
2026-04-21 05:55 36.13455 -121.41887 26839 ft 463 kts 321°
2026-04-21 05:55 36.16204 -121.43942 26316 ft 460 kts 321°
2026-04-21 05:55 36.18936 -121.45999 25722 ft 458 kts 321°
2026-04-21 05:56 36.21642 -121.48065 25232 ft 455 kts 320°
2026-04-21 05:56 36.24318 -121.50133 24770 ft 452 kts 320°
2026-04-21 05:56 36.26969 -121.52199 24267 ft 449 kts 320°
2026-04-21 05:56 36.29606 -121.54263 23783 ft 447 kts 320°
2026-04-21 05:57 36.32226 -121.56316 23226 ft 444 kts 320°
2026-04-21 05:57 36.34830 -121.58361 22516 ft 443 kts 320°
2026-04-21 05:57 36.37433 -121.60405 22015 ft 440 kts 320°
2026-04-21 05:57 36.40006 -121.62423 21548 ft 436 kts 320°
2026-04-21 05:58 36.42558 -121.64427 21073 ft 433 kts 320°
2026-04-21 05:58 36.45099 -121.66425 20500 ft 432 kts 320°
2026-04-21 05:58 36.47626 -121.68413 20136 ft 426 kts 320°
2026-04-21 05:58 36.50095 -121.70351 19990 ft 415 kts 320°
2026-04-21 05:59 36.52532 -121.72272 19454 ft 413 kts 320°
2026-04-21 05:59 36.54937 -121.74173 19091 ft 408 kts 320°
2026-04-21 05:59 36.57326 -121.76064 18709 ft 406 kts 320°
2026-04-21 06:00 36.62050 -121.79806 17691 ft 407 kts 321°
2026-04-21 06:00 36.64435 -121.81701 17153 ft 408 kts 322°
2026-04-21 06:00 36.66822 -121.83594 16669 ft 406 kts 322°
2026-04-21 06:00 36.69198 -121.85479 16232 ft 403 kts 322°
2026-04-21 06:01 36.71550 -121.87353 15817 ft 400 kts 322°
2026-04-21 06:01 36.73919 -121.89180 15340 ft 402 kts 328°
2026-04-21 06:01 36.76590 -121.90254 14891 ft 407 kts 347°
2026-04-21 06:01 36.79345 -121.90930 14464 ft 403 kts 346°
2026-04-21 06:02 36.82085 -121.91651 14040 ft 401 kts 345°
2026-04-21 06:02 36.84800 -121.92391 13567 ft 398 kts 345°
2026-04-21 06:02 36.87454 -121.93130 13120 ft 395 kts 344°
2026-04-21 06:02 36.90126 -121.93877 12690 ft 391 kts 345°
2026-04-21 06:03 36.92767 -121.94616 12266 ft 387 kts 345°
2026-04-21 06:03 36.95381 -121.95355 11855 ft 383 kts 343°
2026-04-21 06:03 36.97928 -121.96238 11475 ft 378 kts 340°
2026-04-21 06:03 37.00425 -121.97237 11047 ft 375 kts 339°
2026-04-21 06:04 37.02896 -121.98219 10654 ft 371 kts 338°
2026-04-21 06:04 37.05309 -121.99211 10539 ft 359 kts 339°
2026-04-21 06:04 37.07653 -122.00140 10350 ft 349 kts 339°
2026-04-21 06:04 37.09940 -122.01048 10213 ft 340 kts 338°
2026-04-21 06:05 37.12159 -122.01925 10072 ft 328 kts 338°
2026-04-21 06:05 37.14310 -122.02771 9941 ft 320 kts 339°
2026-04-21 06:05 37.16390 -122.03607 9690 ft 316 kts 335°
2026-04-21 06:05 37.18500 -122.04497 9268 ft 321 kts 340°
2026-04-21 06:06 37.20665 -122.05243 8915 ft 322 kts 341°
2026-04-21 06:06 37.22800 -122.06050 8574 ft 318 kts 339°
2026-04-21 06:06 37.24884 -122.06872 8346 ft 311 kts 339°
2026-04-21 06:06 37.26941 -122.07684 8062 ft 309 kts 338°
2026-04-21 06:07 37.28992 -122.08504 7656 ft 309 kts 339°
2026-04-21 06:07 37.31039 -122.09329 7284 ft 310 kts 338°
2026-04-21 06:07 37.33104 -122.10152 6888 ft 312 kts 339°
2026-04-21 06:07 37.35179 -122.10990 6464 ft 315 kts 338°
2026-04-21 06:08 37.37275 -122.11845 6030 ft 318 kts 340°
2026-04-21 06:08 37.39401 -122.12584 5640 ft 317 kts 343°
2026-04-21 06:08 37.41537 -122.13294 5241 ft 317 kts 342°
2026-04-21 06:08 37.43654 -122.14036 4887 ft 314 kts 341°
2026-04-21 06:09 37.45782 -122.14681 4445 ft 315 kts 346°
2026-04-21 06:09 37.47804 -122.15399 4690 ft 280 kts 341°
2026-04-21 06:09 37.49623 -122.16067 4419 ft 265 kts 342°
2026-04-21 06:09 37.51337 -122.16653 4283 ft 246 kts 342°
2026-04-21 06:10 37.52919 -122.17249 4150 ft 228 kts 330°
2026-04-21 06:10 37.53986 -122.18527 3848 ft 206 kts 290°
2026-04-21 06:10 37.54602 -122.20145 3444 ft 204 kts 292°
2026-04-21 06:10 37.55236 -122.21677 3202 ft 189 kts 292°
2026-04-21 06:11 37.55828 -122.23080 2896 ft 179 kts 292°
2026-04-21 06:11 37.56432 -122.24527 2151 ft 192 kts 294°
2026-04-21 06:11 37.57054 -122.26011 1723 ft 186 kts 295°
2026-04-21 06:11 37.57632 -122.27389 1468 ft 175 kts 295°
2026-04-21 06:12 37.58179 -122.28695 1246 ft 162 kts 295°
2026-04-21 06:12 37.58683 -122.29901 1099 ft 150 kts 296°
2026-04-21 06:12 37.59173 -122.31074 882 ft 151 kts 296°
2026-04-21 06:12 37.59661 -122.32242 695 ft 150 kts 297°
2026-04-21 06:13 37.60123 -122.33404 541 ft 149 kts 296°
2026-04-21 06:13 37.60629 -122.34558 252 ft 148 kts 298°
2026-04-21 06:13 37.61112 -122.35701 82 ft 148 kts 300°
2026-04-21 06:13 37.61580 -122.36821 22 ft 142 kts 298°
2026-04-21 06:14 37.61962 -122.37723 22 ft 97 kts 297°
2026-04-21 06:14 37.62207 -122.38307 22 ft 52 kts 297°
2026-04-21 06:14 37.62267 -122.38569 22 ft 11 kts 237°
2026-04-21 06:14 37.62248 -122.38593 22 ft 0 kts 207°
2026-04-21 06:15 37.62247 -122.38593 21 ft 2 kts 207°
2026-04-21 06:15 37.62209 -122.38613 21 ft 7 kts 214°
2026-04-21 06:15 37.62160 -122.38618 21 ft 10 kts 156°
2026-04-21 06:16 37.62109 -122.38549 21 ft 11 kts 126°
2026-04-21 06:16 37.62018 -122.38524 21 ft 13 kts 206°
2026-04-21 06:16 37.61971 -122.38531 21 ft 5 kts 124°
2026-04-21 06:16 37.61951 -122.38491 21 ft 5 kts 122°
2026-04-21 06:17 37.61946 -122.38481 21 ft 0 kts 121°
2026-04-21 06:17 37.61944 -122.38478 21 ft 0 kts 121°